Time,TemperatureF,DewpointF,PressureIn,WindDirection,WindDirectionDegrees,WindSpeedMPH,WindSpeedGustMPH,Humidity,HourlyPrecipIn,Conditions,Clouds,dailyrainin,SolarRadiationWatts/m^2,SoftwareType,DateUTC
2013-09-26 00:12:00,40.0,27.0,29.84,NNW,338,12.0,17.0,61,-99.99,,,-99.99,0.000000,,2013-09-26 07:12:00,
2013-09-26 00:22:00,40.0,27.0,29.84,NNW,338,12.0,17.0,61,-99.99,,,-99.99,0.000000,,2013-09-26 07:22:00,
2013-09-26 00:53:00,39.0,28.0,29.83,NNW,339,11.0,14.0,63,-99.99,,,-99.99,0.000000,,2013-09-26 07:53:00,
2013-09-26 01:02:00,39.0,28.0,29.83,NNW,339,11.0,14.0,63,-99.99,,,-99.99,0.000000,,2013-09-26 08:02:00,
2013-09-26 01:22:00,39.0,27.0,29.84,NNW,338,11.0,14.0,62,-99.99,,,-99.99,0.000000,,2013-09-26 08:22:00,
2013-09-26 01:42:00,39.0,28.0,29.84,NW,324,11.0,14.0,64,-99.99,,,-99.99,0.000000,,2013-09-26 08:42:00,
2013-09-26 01:52:00,39.0,27.0,29.84,NNW,337,11.0,14.0,64,-99.99,,,-99.99,0.000000,,2013-09-26 08:52:00,
2013-09-26 02:11:00,38.0,28.0,29.84,NNW,330,12.0,14.0,66,-99.99,,,-99.99,0.000000,,2013-09-26 09:11:00,
2013-09-26 02:22:00,38.0,28.0,29.84,NNW,330,12.0,14.0,66,-99.99,,,-99.99,0.000000,,2013-09-26 09:22:00,
2013-09-26 02:43:00,38.0,28.0,29.83,NW,319,11.0,13.0,66,-99.99,,,-99.99,0.000000,,2013-09-26 09:43:00,
2013-09-26 02:53:00,38.0,28.0,29.83,NW,320,9.0,12.0,66,-99.99,,,-99.99,0.000000,,2013-09-26 09:53:00,
2013-09-26 03:03:00,38.0,28.0,29.83,NW,320,9.0,12.0,66,-99.99,,,-99.99,0.000000,,2013-09-26 10:03:00,
2013-09-26 03:23:00,38.0,26.0,29.83,WNW,296,9.0,12.0,62,-99.99,,,-99.99,0.000000,,2013-09-26 10:23:00,
2013-09-26 03:42:00,38.0,26.0,29.83,NW,307,9.0,11.0,60,-99.99,,,-99.99,0.000000,,2013-09-26 10:42:00,
2013-09-26 04:10:00,38.0,27.0,29.81,NNW,343,10.0,14.0,64,-99.99,,,-99.99,0.000000,,2013-09-26 11:10:00,
2013-09-26 04:22:00,38.0,26.0,29.82,NNW,334,9.0,13.0,61,-99.99,,,-99.99,0.000000,,2013-09-26 11:22:00,
2013-09-26 04:42:00,38.0,27.0,29.82,NNW,338,9.0,12.0,63,-99.99,,,-99.99,0.000000,,2013-09-26 11:42:00,
2013-09-26 05:10:00,37.0,25.0,29.82,NW,326,11.0,13.0,61,-99.99,,,-99.99,0.000000,,2013-09-26 12:10:00,
2013-09-26 05:22:00,38.0,27.0,29.82,NNW,342,10.0,14.0,63,-99.99,,,-99.99,0.000000,,2013-09-26 12:22:00,
2013-09-26 05:30:00,37.0,26.0,29.82,NW,317,11.0,13.0,64,-99.99,,,-99.99,0.000000,,2013-09-26 12:30:00,
2013-09-26 05:42:00,38.0,25.0,29.82,NNW,339,12.0,16.0,60,-99.99,,,-99.99,0.000000,,2013-09-26 12:42:00,
2013-09-26 05:52:00,37.0,25.0,29.82,NW,326,11.0,13.0,61,-99.99,,,-99.99,0.000000,,2013-09-26 12:52:00,
2013-09-26 06:02:00,37.0,25.0,29.82,NW,326,11.0,13.0,61,-99.99,,,-99.99,0.000000,,2013-09-26 13:02:00,
2013-09-26 06:22:00,37.0,26.0,29.82,NW,317,11.0,13.0,64,-99.99,,,-99.99,0.000000,,2013-09-26 13:22:00,
2013-09-26 07:10:00,37.0,25.0,29.82,NW,314,6.0,7.0,62,-99.99,,,-99.99,32.000000,,2013-09-26 14:10:00,
2013-09-26 07:22:00,37.0,24.0,29.82,NNW,331,8.0,10.0,60,-99.99,,,-99.99,4.000000,,2013-09-26 14:22:00,
2013-09-26 07:42:00,37.0,25.0,29.82,NNW,332,7.0,10.0,61,-99.99,,,-99.99,7.000000,,2013-09-26 14:42:00,
2013-09-26 07:52:00,37.0,25.0,29.82,NW,314,6.0,7.0,62,-99.99,,,-99.99,32.000000,,2013-09-26 14:52:00,
2013-09-26 08:02:00,37.0,25.0,29.82,NW,314,6.0,7.0,62,-99.99,,,-99.99,32.000000,,2013-09-26 15:02:00,
2013-09-26 08:22:00,37.0,25.0,29.82,WNW,303,7.0,9.0,61,-99.99,,,-99.99,34.000000,,2013-09-26 15:22:00,
2013-09-26 08:44:00,37.0,24.0,29.82,WNW,301,7.0,10.0,58,-99.99,,,-99.99,70.000000,,2013-09-26 15:44:00,
2013-09-26 08:53:00,38.0,24.0,29.82,NW,323,7.0,10.0,57,-99.99,,,-99.99,93.000000,,2013-09-26 15:53:00,
2013-09-26 09:13:00,38.0,24.0,29.82,WNW,301,7.0,10.0,56,-99.99,,,-99.99,148.000000,,2013-09-26 16:13:00,
2013-09-26 09:24:00,38.0,24.0,29.82,WNW,301,7.0,10.0,56,-99.99,,,-99.99,148.000000,,2013-09-26 16:24:00,
2013-09-26 09:43:00,38.0,24.0,29.83,NW,320,9.0,13.0,56,-99.99,,,-99.99,205.000000,,2013-09-26 16:43:00,
2013-09-26 09:53:00,38.0,25.0,29.83,NW,313,8.0,14.0,58,-99.99,,,-99.99,257.000000,,2013-09-26 16:53:00,
2013-09-26 10:03:00,38.0,25.0,29.83,NW,313,8.0,14.0,58,-99.99,,,-99.99,257.000000,,2013-09-26 17:03:00,
2013-09-26 10:23:00,38.0,25.0,29.83,NW,320,7.0,12.0,60,-99.99,,,-99.99,135.000000,,2013-09-26 17:23:00,
2013-09-26 10:43:00,38.0,25.0,29.84,WNW,290,8.0,12.0,60,-99.99,,,-99.99,161.000000,,2013-09-26 17:43:00,
2013-09-26 10:52:00,38.0,25.0,29.83,WNW,302,11.0,15.0,59,-99.99,,,-99.99,237.000000,,2013-09-26 17:52:00,
2013-09-26 11:01:00,38.0,25.0,29.83,WNW,302,11.0,15.0,59,-99.99,,,-99.99,237.000000,,2013-09-26 18:01:00,
2013-09-26 11:21:00,39.0,25.0,29.84,NW,326,7.0,11.0,57,-99.99,,,-99.99,249.000000,,2013-09-26 18:21:00,
2013-09-26 11:42:00,39.0,24.0,29.84,WNW,288,8.0,12.0,54,-99.99,,,-99.99,279.000000,,2013-09-26 18:42:00,
2013-09-26 11:50:00,41.0,23.0,29.83,NW,313,5.0,9.0,49,-99.99,,,-99.99,406.000000,,2013-09-26 18:50:00,
2013-09-26 11:52:00,40.0,25.0,29.84,West,275,5.0,9.0,54,-99.99,,,-99.99,402.000000,,2013-09-26 18:52:00,
2013-09-26 12:03:00,40.0,25.0,29.84,West,275,5.0,9.0,54,-99.99,,,-99.99,402.000000,,2013-09-26 19:03:00,
2013-09-26 12:22:00,41.0,24.0,29.84,WSW,241,3.0,8.0,51,-99.99,,,-99.99,354.000000,,2013-09-26 19:22:00,
2013-09-26 12:30:00,41.0,26.0,29.84,WNW,286,4.0,9.0,54,-99.99,,,-99.99,451.000000,,2013-09-26 19:30:00,
2013-09-26 12:43:00,41.0,23.0,29.83,NW,313,5.0,9.0,49,-99.99,,,-99.99,406.000000,,2013-09-26 19:43:00,
2013-09-26 13:10:00,40.0,29.0,29.84,West,280,9.0,12.0,63,-99.99,,,-99.99,327.000000,,2013-09-26 20:10:00,
2013-09-26 13:22:00,41.0,26.0,29.84,WNW,286,4.0,9.0,54,-99.99,,,-99.99,451.000000,,2013-09-26 20:22:00,
2013-09-26 14:10:00,39.0,31.0,29.86,SSE,164,1.0,4.0,72,-99.99,,,-99.99,213.000000,,2013-09-26 21:10:00,
2013-09-26 14:23:00,39.0,28.0,29.85,NW,305,5.0,10.0,64,-99.99,,,-99.99,311.000000,,2013-09-26 21:23:00,
2013-09-26 14:44:00,40.0,30.0,29.86,SW,232,5.0,9.0,67,-99.99,,,-99.99,238.000000,,2013-09-26 21:44:00,
2013-09-26 15:10:00,42.0,26.0,29.86,ENE,74,3.0,6.0,53,-99.99,,,-99.99,345.000000,,2013-09-26 22:10:00,
2013-09-26 15:42:00,41.0,28.0,29.86,North,10,1.0,3.0,59,-99.99,,,-99.99,212.000000,,2013-09-26 22:42:00,
2013-09-26 15:54:00,42.0,26.0,29.86,ENE,74,3.0,6.0,53,-99.99,,,-99.99,345.000000,,2013-09-26 22:54:00,
2013-09-26 16:03:00,42.0,26.0,29.86,ENE,74,3.0,6.0,53,-99.99,,,-99.99,345.000000,,2013-09-26 23:03:00,
2013-09-26 16:30:00,43.0,27.0,29.87,NW,314,7.0,10.0,53,-99.99,,,-99.99,242.000000,,2013-09-26 23:30:00,
2013-09-26 16:42:00,44.0,25.0,29.86,NNW,335,5.0,10.0,47,-99.99,,,-99.99,372.000000,,2013-09-26 23:42:00,
2013-09-26 16:50:00,44.0,27.0,29.87,WNW,293,5.0,10.0,50,-99.99,,,-99.99,257.000000,,2013-09-26 23:50:00,
2013-09-26 16:53:00,43.0,26.0,29.86,NNW,330,10.0,15.0,51,-99.99,,,-99.99,197.000000,,2013-09-26 23:53:00,
2013-09-26 17:02:00,43.0,26.0,29.86,NNW,330,10.0,15.0,51,-99.99,,,-99.99,197.000000,,2013-09-27 00:02:00,
2013-09-26 17:22:00,43.0,27.0,29.87,NW,314,7.0,10.0,53,-99.99,,,-99.99,242.000000,,2013-09-27 00:22:00,
2013-09-26 18:11:00,43.0,25.0,29.88,West,270,10.0,13.0,50,-99.99,,,-99.99,88.000000,,2013-09-27 01:11:00,
2013-09-26 18:42:00,40.0,31.0,29.90,WNW,283,17.0,23.0,69,-99.99,,,-99.99,9.000000,,2013-09-27 01:42:00,
2013-09-26 18:52:00,36.0,32.0,29.92,West,278,9.0,17.0,86,-99.99,,,-99.99,20.000000,,2013-09-27 01:52:00,
2013-09-26 19:02:00,36.0,32.0,29.92,West,278,9.0,17.0,86,-99.99,,,-99.99,20.000000,,2013-09-27 02:02:00,
2013-09-26 19:22:00,36.0,33.0,29.93,NNE,16,9.0,12.0,87,-99.99,,,-99.99,7.000000,,2013-09-27 02:22:00,
2013-09-26 19:42:00,35.0,33.0,29.94,NNE,16,3.0,5.0,92,-99.99,,,-99.99,0.000000,,2013-09-27 02:42:00,
2013-09-26 19:50:00,36.0,33.0,29.95,West,269,4.0,5.0,90,-99.99,,,-99.99,0.000000,,2013-09-27 02:50:00,
2013-09-26 19:53:00,36.0,33.0,29.94,North,1,7.0,11.0,90,-99.99,,,-99.99,0.000000,,2013-09-27 02:53:00,
2013-09-26 20:02:00,36.0,33.0,29.94,North,1,7.0,11.0,90,-99.99,,,-99.99,0.000000,,2013-09-27 03:02:00,
2013-09-26 20:22:00,36.0,33.0,29.94,North,0,4.0,7.0,90,-99.99,,,-99.99,0.000000,,2013-09-27 03:22:00,
2013-09-26 20:44:00,36.0,33.0,29.95,West,269,4.0,5.0,90,-99.99,,,-99.99,0.000000,,2013-09-27 03:44:00,
2013-09-26 21:10:00,36.0,33.0,29.96,SW,230,1.0,2.0,88,-99.99,,,-99.99,0.000000,,2013-09-27 04:10:00,
2013-09-26 21:44:00,36.0,33.0,29.96,WSW,257,3.0,4.0,89,-99.99,,,-99.99,0.000000,,2013-09-27 04:44:00,
2013-09-26 21:54:00,36.0,33.0,29.96,SW,230,1.0,2.0,88,-99.99,,,-99.99,0.000000,,2013-09-27 04:54:00,
2013-09-26 22:04:00,36.0,33.0,29.96,SW,230,1.0,2.0,88,-99.99,,,-99.99,0.000000,,2013-09-27 05:04:00,
2013-09-26 22:10:00,37.0,32.0,29.98,West,270,8.0,12.0,82,-99.99,,,-99.99,0.000000,,2013-09-27 05:10:00,
2013-09-26 22:23:00,36.0,33.0,29.97,WSW,245,2.0,3.0,88,-99.99,,,-99.99,0.000000,,2013-09-27 05:23:00,
2013-09-26 22:43:00,36.0,32.0,29.97,West,281,2.0,5.0,85,-99.99,,,-99.99,0.000000,,2013-09-27 05:43:00,
2013-09-26 23:22:00,37.0,32.0,29.99,WNW,292,6.0,8.0,81,-99.99,,,-99.99,1.000000,,2013-09-27 06:22:00,
2013-09-26 23:42:00,37.0,33.0,29.99,NNE,21,3.0,5.0,84,-99.99,,,-99.99,1.000000,,2013-09-27 06:42:00,